| time (UTC) | temp C | wind direction | speed KPH | gust KPH | rain 1hr cm | rain 24hr cm | rain mn cm | humidity % | barometer mb |
| 20260507203001 | 17 | 161 | 0.0 | 0.0 | 0.00 | 0.00 | 0.00 | 76 | 1014.5 |
| 20260507201002 | 17 | 161 | 0.0 | 0.0 | 0.00 | 0.00 | 0.00 | 76 | 1014.4 |
| 20260507200003 | 17 | 161 | 1.6 | 3.2 | 0.00 | 0.00 | 0.00 | 75 | 1014.5 |
| 20260507193002 | 17 | 161 | 0.0 | 1.6 | 0.00 | 0.00 | 0.00 | 74 | 1014.3 |
| 20260507191959 | 17 | 161 | 0.0 | 3.2 | 0.00 | 0.00 | 0.00 | 74 | 1014.2 |
| 20260507191001 | 17 | 161 | 1.6 | 3.2 | 0.00 | 0.00 | 0.00 | 73 | 1014.1 |
| 20260507190003 | 18 | 161 | 1.6 | 4.8 | 0.00 | 0.00 | 0.00 | 73 | 1014.1 |
| 20260507184959 | 18 | 161 | 1.6 | 4.8 | 0.00 | 0.00 | 0.00 | 72 | 1014.0 |
| 20260507184001 | 18 | 161 | 0.0 | 4.8 | 0.00 | 0.00 | 0.00 | 72 | 1014.0 |
| 20260507183000 | 18 | 161 | 1.6 | 4.8 | 0.00 | 0.00 | 0.00 | 71 | 1013.9 |
| 20260507182002 | 18 | 161 | 1.6 | 4.8 | 0.00 | 0.00 | 0.00 | 71 | 1013.9 |
| 20260507181001 | 18 | 161 | 3.2 | 11.3 | 0.00 | 0.00 | 0.00 | 71 | 1013.6 |
| 20260507180004 | 18 | 167 | 3.2 | 11.3 | 0.00 | 0.00 | 0.00 | 72 | 1013.5 |
| 20260507174959 | 18 | 140 | 4.8 | 11.3 | 0.00 | 0.00 | 0.00 | 73 | 1013.4 |
| 20260507174002 | 18 | 153 | 3.2 | 8.0 | 0.00 | 0.00 | 0.00 | 74 | 1013.3 |
| 20260507172959 | 18 | 165 | 4.8 | 14.5 | 0.00 | 0.00 | 0.00 | 75 | 1013.3 |
| 20260507172004 | 18 | 160 | 6.4 | 19.3 | 0.00 | 0.00 | 0.00 | 77 | 1013.3 |
| 20260507171000 | 18 | 155 | 4.8 | 16.1 | 0.00 | 0.00 | 0.00 | 78 | 1013.3 |
| 20260507170006 | 18 | 167 | 4.8 | 9.7 | 0.00 | 0.00 | 0.00 | 79 | 1013.3 |
| 20260507164959 | 19 | 288 | 4.8 | 11.3 | 0.00 | 0.00 | 0.00 | 78 | 1013.4 |
| 20260507164001 | 19 | 133 | 4.8 | 12.9 | 0.00 | 0.00 | 0.00 | 74 | 1013.3 |
| 20260507162959 | 19 | 228 | 3.2 | 12.9 | 0.00 | 0.00 | 0.00 | 71 | 1013.2 |
| 20260507162001 | 19 | 18 | 4.8 | 9.7 | 0.00 | 0.00 | 0.00 | 66 | 1013.2 |
| 20260507160959 | 19 | 32 | 3.2 | 14.5 | 0.00 | 0.00 | 0.00 | 62 | 1013.3 |
| 20260507160004 | 19 | 321 | 3.2 | 12.9 | 0.00 | 0.00 | 0.00 | 61 | 1013.3 |
| 20260507154958 | 19 | 20 | 3.2 | 12.9 | 0.00 | 0.00 | 0.00 | 63 | 1013.4 |
| 20260507154002 | 19 | 281 | 4.8 | 9.7 | 0.00 | 0.00 | 0.00 | 65 | 1013.5 |
| 20260507152958 | 19 | 30 | 4.8 | 9.7 | 0.00 | 0.00 | 0.00 | 64 | 1013.5 |
| 20260507150958 | 19 | 33 | 6.4 | 14.5 | 0.00 | 0.00 | 0.00 | 58 | 1013.4 |
| 20260507144958 | 19 | 14 | 4.8 | 14.5 | 0.00 | 0.00 | 0.00 | 61 | 1013.4 |
| 20260507143958 | 19 | 17 | 6.4 | 12.9 | 0.00 | 0.00 | 0.00 | 62 | 1013.6 |
| 20260507143000 | 20 | 30 | 4.8 | 14.5 | 0.00 | 0.00 | 0.00 | 65 | 1013.6 |
| 20260507141958 | 20 | 28 | 6.4 | 16.1 | 0.00 | 0.00 | 0.00 | 63 | 1013.6 |
| 20260507141000 | 20 | 13 | 6.4 | 14.5 | 0.00 | 0.00 | 0.00 | 61 | 1013.6 |
| 20260507140001 | 20 | 30 | 3.2 | 12.9 | 0.00 | 0.00 | 0.00 | 57 | 1013.5 |
| 20260507134959 | 20 | 41 | 6.4 | 12.9 | 0.00 | 0.00 | 0.00 | 62 | 1013.6 |
| 20260507133958 | 19 | 34 | 4.8 | 14.5 | 0.00 | 0.00 | 0.00 | 59 | 1013.7 |
| 20260507132958 | 20 | 19 | 6.4 | 12.9 | 0.00 | 0.00 | 0.00 | 62 | 1013.6 |
| 20260507132000 | 20 | 30 | 6.4 | 14.5 | 0.00 | 0.00 | 0.00 | 57 | 1013.7 |
| 20260507130958 | 21 | 30 | 3.2 | 12.9 | 0.00 | 0.00 | 0.00 | 58 | 1013.7 |
| 20260507130004 | 21 | 346 | 3.2 | 14.5 | 0.00 | 0.00 | 0.00 | 58 | 1013.5 |
| 20260507124958 | 20 | 44 | 6.4 | 16.1 | 0.00 | 0.00 | 0.00 | 59 | 1013.7 |
| 20260507124001 | 20 | 36 | 4.8 | 19.3 | 0.00 | 0.00 | 0.00 | 56 | 1013.5 |
| 20260507122958 | 21 | 316 | 3.2 | 9.7 | 0.00 | 0.00 | 0.00 | 58 | 1013.7 |
| 20260507122001 | 21 | 36 | 3.2 | 8.0 | 0.00 | 0.00 | 0.00 | 57 | 1013.7 |
| 20260507120003 | 20 | 20 | 6.4 | 12.9 | 0.00 | 0.00 | 0.00 | 53 | 1013.8 |
| 20260507114958 | 21 | 22 | 3.2 | 9.7 | 0.00 | 0.00 | 0.00 | 52 | 1013.8 |
| 20260507114000 | 20 | 279 | 4.8 | 14.5 | 0.00 | 0.00 | 0.00 | 56 | 1013.8 |
| 20260507112958 | 20 | 30 | 6.4 | 16.1 | 0.00 | 0.00 | 0.00 | 57 | 1013.8 |
| 20260507112000 | 20 | 40 | 4.8 | 14.5 | 0.00 | 0.00 | 0.00 | 58 | 1013.9 |
| 20260507110958 | 20 | 36 | 3.2 | 9.7 | 0.00 | 0.00 | 0.00 | 55 | 1013.9 |
| 20260507110004 | 20 | 15 | 3.2 | 14.5 | 0.00 | 0.00 | 0.00 | 57 | 1014.0 |
| 20260507104958 | 20 | 236 | 3.2 | 9.7 | 0.00 | 0.00 | 0.00 | 60 | 1014.1 |
| 20260507102958 | 21 | 71 | 3.2 | 8.0 | 0.00 | 0.00 | 0.00 | 55 | 1014.0 |
| 20260507100958 | 21 | 36 | 4.8 | 9.7 | 0.00 | 0.00 | 0.00 | 54 | 1014.0 |
| 20260507094000 | 21 | 309 | 1.6 | 6.4 | 0.00 | 0.00 | 0.00 | 56 | 1014.0 |
| 20260507092958 | 20 | 68 | 1.6 | 4.8 | 0.00 | 0.00 | 0.00 | 58 | 1014.0 |
| 20260507092002 | 20 | 80 | 1.6 | 6.4 | 0.00 | 0.00 | 0.00 | 57 | 1014.0 |
| 20260507090958 | 21 | 190 | 1.6 | 4.8 | 0.00 | 0.00 | 0.00 | 58 | 1013.9 |
| 20260507090004 | 20 | 82 | 1.6 | 4.8 | 0.00 | 0.00 | 0.00 | 60 | 1014.0 |
| 20260507084958 | 19 | 44 | 1.6 | 6.4 | 0.00 | 0.00 | 0.00 | 61 | 1014.0 |
| 20260507084000 | 19 | 52 | 1.6 | 8.0 | 0.00 | 0.00 | 0.00 | 65 | 1014.0 |
| 20260507082958 | 19 | 86 | 1.6 | 6.4 | 0.00 | 0.00 | 0.00 | 67 | 1013.9 |
| 20260507074958 | 19 | 177 | 1.6 | 4.8 | 0.00 | 0.00 | 0.00 | 60 | 1013.3 |
| 20260507074000 | 18 | 355 | 1.6 | 4.8 | 0.00 | 0.00 | 0.00 | 63 | 1013.4 |
| 20260507072958 | 18 | 300 | 0.0 | 4.8 | 0.00 | 0.00 | 0.00 | 65 | 1013.4 |
| 20260507072000 | 18 | 71 | 0.0 | 3.2 | 0.00 | 0.00 | 0.00 | 67 | 1013.3 |
| 20260507070958 | 18 | 71 | 1.6 | 4.8 | 0.00 | 0.00 | 0.00 | 69 | 1013.4 |
| 20260507070007 | 17 | 144 | 0.0 | 3.2 | 0.00 | 0.00 | 0.00 | 71 | 1013.6 |
| 20260507064958 | 17 | 144 | 0.0 | 1.6 | 0.00 | 0.00 | 0.00 | 73 | 1013.5 |
| 20260507064001 | 17 | 144 | 0.0 | 1.6 | 0.00 | 0.00 | 0.00 | 75 | 1013.5 |
| 20260507062958 | 16 | 144 | 1.6 | 4.8 | 0.00 | 0.00 | 0.00 | 78 | 1013.5 |
| 20260507062000 | 16 | 144 | 1.6 | 4.8 | 0.00 | 0.00 | 0.00 | 81 | 1013.5 |
| 20260507060958 | 16 | 144 | 0.0 | 1.6 | 0.00 | 0.00 | 0.00 | 82 | 1013.4 |
| 20260507054957 | 15 | 144 | 1.6 | 6.4 | 0.00 | 0.03 | 0.00 | 84 | 1013.3 |
| 20260507054000 | 15 | 144 | 0.0 | 1.6 | 0.00 | 0.03 | 0.00 | 85 | 1013.3 |
| 20260507052957 | 15 | 144 | 0.0 | 3.2 | 0.00 | 0.03 | 0.00 | 86 | 1013.0 |
| 20260507051959 | 15 | 144 | 0.0 | 1.6 | 0.00 | 0.03 | 0.00 | 86 | 1013.1 |
| 20260507050957 | 15 | 144 | 0.0 | 0.0 | 0.00 | 0.03 | 0.00 | 86 | 1013.0 |
| 20260507050002 | 15 | 144 | 0.0 | 0.0 | 0.00 | 0.03 | 0.00 | 86 | 1013.0 |
| 20260507042957 | 15 | 144 | 1.6 | 4.8 | 0.00 | 0.13 | 0.00 | 86 | 1012.5 |
| 20260507040957 | 15 | 144 | 1.6 | 4.8 | 0.00 | 0.13 | 0.00 | 86 | 1012.4 |
| 20260507034957 | 15 | 144 | 1.6 | 3.2 | 0.00 | 0.13 | 0.00 | 86 | 1012.2 |
| 20260507033959 | 15 | 144 | 0.0 | 3.2 | 0.00 | 0.13 | 0.00 | 86 | 1012.2 |
| 20260507032957 | 15 | 144 | 1.6 | 4.8 | 0.00 | 0.13 | 0.00 | 85 | 1012.2 |
| 20260507031959 | 15 | 144 | 1.6 | 3.2 | 0.00 | 0.13 | 0.00 | 84 | 1012.2 |
| 20260507030957 | 15 | 144 | 0.0 | 4.8 | 0.00 | 0.13 | 0.00 | 82 | 1012.2 |
| 20260507030002 | 15 | 144 | 0.0 | 0.0 | 0.00 | 0.13 | 0.00 | 81 | 1012.2 |
| 20260507024957 | 16 | 144 | 0.0 | 0.0 | 0.00 | 0.13 | 0.00 | 80 | 1012.2 |
| 20260507023959 | 16 | 144 | 0.0 | 0.0 | 0.00 | 0.13 | 0.00 | 79 | 1012.1 |
| 20260507022957 | 16 | 144 | 0.0 | 0.0 | 0.00 | 0.13 | 0.00 | 79 | 1012.0 |
| 20260507021959 | 16 | 144 | 0.0 | 0.0 | 0.00 | 0.13 | 0.00 | 80 | 1012.0 |
| 20260507020957 | 16 | 144 | 0.0 | 0.0 | 0.00 | 0.13 | 0.00 | 80 | 1012.1 |
| 20260507020003 | 16 | 144 | 0.0 | 0.0 | 0.00 | 0.13 | 0.00 | 81 | 1012.1 |
| 20260507014957 | 16 | 144 | 0.0 | 0.0 | 0.00 | 0.13 | 0.00 | 81 | 1012.1 |
| 20260507013959 | 16 | 144 | 0.0 | 0.0 | 0.00 | 0.13 | 0.00 | 81 | 1012.0 |
| 20260507012957 | 16 | 144 | 0.0 | 3.2 | 0.00 | 0.13 | 0.00 | 80 | 1012.1 |
| 20260507011959 | 16 | 144 | 0.0 | 0.0 | 0.00 | 0.13 | 0.00 | 79 | 1012.1 |
| 20260507010002 | 16 | 144 | 0.0 | 3.2 | 0.00 | 0.13 | 0.00 | 78 | 1012.1 |
| 20260507004957 | 16 | 144 | 0.0 | 0.0 | 0.00 | 0.13 | 0.00 | 78 | 1012.1 |
| 20260507003959 | 17 | 144 | 0.0 | 3.2 | 0.00 | 0.13 | 0.00 | 77 | 1012.1 |
| 20260507002957 | 17 | 144 | 0.0 | 3.2 | 0.00 | 0.13 | 0.00 | 76 | 1012.1 |
| 20260507001959 | 17 | 144 | 0.0 | 1.6 | 0.00 | 0.13 | 0.00 | 75 | 1012.2 |
| 20260507000000 | 17 | 144 | 0.0 | 1.6 | 0.00 | 0.13 | 0.00 | 73 | 1012.1 |
| 20260506234959 | 17 | 144 | 0.0 | 1.6 | 0.00 | 0.13 | 0.00 | 72 | 1012.2 |
| 20260506233957 | 17 | 144 | 0.0 | 4.8 | 0.00 | 0.13 | 0.00 | 72 | 1011.9 |
| 20260506233000 | 17 | 144 | 0.0 | 3.2 | 0.00 | 0.13 | 0.00 | 74 | 1012.1 |
| 20260506230959 | 17 | 144 | 4.8 | 11.3 | 0.00 | 0.13 | 0.00 | 74 | 1011.8 |
| 20260506230002 | 17 | 140 | 6.4 | 16.1 | 0.00 | 0.13 | 0.00 | 74 | 1012.0 |
| 20260506224000 | 17 | 133 | 4.8 | 11.3 | 0.00 | 0.15 | 0.00 | 74 | 1011.9 |
| 20260506223003 | 17 | 138 | 3.2 | 8.0 | 0.00 | 0.15 | 0.00 | 74 | 1012.0 |
| 20260506222000 | 17 | 130 | 4.8 | 11.3 | 0.00 | 0.15 | 0.00 | 74 | 1012.1 |
| 20260506221002 | 17 | 132 | 3.2 | 6.4 | 0.00 | 0.15 | 0.00 | 74 | 1012.1 |
| 20260506220006 | 17 | 131 | 1.6 | 6.4 | 0.00 | 0.15 | 0.00 | 75 | 1012.1 |
| 20260506215003 | 17 | 92 | 0.0 | 3.2 | 0.00 | 0.23 | 0.15 | 75 | 1012.2 |
| 20260506214001 | 17 | 92 | 0.0 | 3.2 | 0.00 | 0.23 | 0.15 | 75 | 1012.1 |
| 20260506213003 | 17 | 92 | 0.0 | 3.2 | 0.00 | 0.23 | 0.15 | 75 | 1012.1 |
| 20260506212000 | 17 | 92 | 0.0 | 3.2 | 0.00 | 0.23 | 0.15 | 76 | 1012.1 |
| 20260506210003 | 17 | 92 | 0.0 | 1.6 | 0.00 | 0.23 | 0.15 | 77 | 1012.2 |
| 20260506205002 | 17 | 92 | 0.0 | 3.2 | 0.00 | 0.46 | 0.15 | 77 | 1012.3 |
| 20260506203959 | 17 | 92 | 0.0 | 3.2 | 0.00 | 0.46 | 0.15 | 77 | 1012.2 |